SCP
0 0 -0 -0 -0 -0 -0 -0 -0 -0 -0 0 0 0 0 0 0 0 0 0 0 0 0 0 0 0 0 0 0 0 0 0 0 0 0 0 0 0 0 0 0 0 0
-0 0 -0 -0 -0 -0 -0 -0 -0 -0 0 0 0 0 0 0 0 0 0 0 0 0 0 0 0 0 0 0 0 0 0 0 0 0 0 0 0 0 0 0 0 0 0
-0 0 0 -0 -0 -0 -0 -0 0 0 0 0 0 0 0 0 0 0 0 0 0 0 0 0 0 0 0 0 0 0 0 0 0 0 0 0 0 0 0 0 0 0 0
0 0 -0 -0 -0 -0 -0 -0 0 0 0 0 0 0 0 0 0 0 0 0 0 0 0 0 0 0 0 0 0 0 0 0 0 0 0 0 0 0 0 0 0 0 0
0 -0 0 -0 -0 -0 0 0 0 0 0 0 0 0 0 0 0 0 0 0 0 0 0 0 0 0 0 0 0 0 0 0 0 0 0 0 0 0 0 0 0 0 0
0 0 0 0 0 0 0 0 0 0 0 0 0 0 0 0 0 0 0 0 0 0 0 0 0 0 0 0 0 0 0 0 0 0 0 0 0 0 0 0 0 0 0
0 0 0 0 0 0 0 0 0 0 0 0 0 0 0 0 0 0 0 0 0 0 0 0 0 0 0 0 0 0 0 0 0 0 0 0 0 0 0 0 0 0 0
0 0 0 0 0 0 0 0 0 0 0 0 0 0 0 0 0 0 0 0 0 0 0 0 0 0 0 0 0 0 0 0 0 0 0 0 0 0 0 0 0 0 0
0 0 0 0 0 0 0 0 0 0 0 0 0 0 0 0 0 0 0 0 0 0 0 0 0 0 0 0 0 0 0 0 0 0 0 0 0 0 0 0 0 0 0
0 0 0 0 0 0 0 0 0 0 0 0 0 0 0 0 0 0 0 0 0 0 0 0 0 0 0 0 0 0 0 0 0 0 0 0 0 0 -0 0 0 0 0
0 0 0 0 0 0 0 0 0 0 0 0 0 0 0 0 0 0 0 0 0 0 0 0 0 0 0 0 0 0 0 0 0 0 0 0 0 0 0 0 0 0 0
0 0 0 0 0 0 0 0 0 0 0 0 0 0 0 0 0 0 0 0 0 0 0 0 0 0 0 0 0 0 0 0 0 0 0 0 0 0 0 0 0 0 0
0 0 0 0 0 0 0 0 0 0 0 0 0 0 0 0 0 0 0 0 0 0 0 0 0 0 0 0 0 0 0 0 0 0 0 0 0 0 0 0 0 0 0
0 0 0 0 0 0 0 0 0 0 0 0 0 0 0 0 0 0 0 0 0 0 0 0 0 0 0 0 0 0 0 0 0 0 0 0 0 0 0 0 0 0 0
0 0 0 0 0 0 0 0 0 0 0 0 0 0 0 0 0 0 0 0 0 0 0 0 0 0 0 0 0 0 0 0 0 0 0 0 0 0 0 0 0 0 0
0 0 0 0 0 0 0 0 0 0 0 0 0 0 0 0 0 0 0 0 0 0 0 0 0 0 0 0 0 0 0 0 0 0 0 0 0 0 0 0 0 0 0
0 0 0 0 0 0 0 0 0 0 0 0 0 0 0 0 0 0 -0 0 0 0 0 0 0 0 0 0 0 0 0 0 0 0 0 0 0 0 0 0 0 0 0
0 0 0 0 0 0 -0 -0 -0 -0 -0 0 0 0 0 0 0 0 0 0 0 0 0 0 0 0 0 0 0 0 0 0 0 0 0 0 0 0 0 0 0 0 0
0 0 0 0 0 -0 0 -0 -0 -0 0 0 0 0 0 0 0 0 0 0 0 0 0 0 0 0 0 0 0 0 0 0 0 0 0 0 0 0 0 0 0 0 0
0 0 0 0 0 0 0 0 0 -0 -0 0 0 0 0 0 0 0 0 0 0 0 0 0 0 0 0 0 0 0 0 0 0 0 0 0 0 0 0 0 0 0 0
0 0 0 0 0 0 0 0 0 -0 0 0 0 0 0 0 0 0 0 0 0 0 0 0 0 0 0 0 0 0 0 0 0 0 0 0 0 0 0 0 0 0 0
0 0 0 0 0 0 0 0 0 0 0 0 0 0 0 0 0 0 0 0 0 0 0 0 0 0 0 0 0 0 0 0 0 0 0 0 0 0 0 0 0 0 0
0 0 0 0 0 0 0 0 0 0 0 0 0 0 0 0 0 0 0 0 0 0 0 0 0 0 0 0 0 0 0 0 0 0 0 0 0 0 0 0 0 0 0
0 0 0 0 0 0 0 0 0 0 0 0 0 0 0 0 0 0 0 0 0 0 0 0 0 0 0 0 0 0 0 0 0 0 0 0 0 0 0 0 0 0 0
0 0 0 0 0 0 0 0 0 0 0 0 0 0 0 0 0 0 0 0 0 0 0 0 0 0 0 0 0 0 0 0 0 0 0 0 0 0 0 0 0 0 0
0 0 0 0 0 0 0 0 0 0 0 0 0 0 0 0 0 0 0 0 0 0 0 0 0 0 0 0 0 0 0 0 0 0 0 0 0 0 0 0 0 0 0
Wind_Speed_500mb
22 17 16 19 19 18 19 20 20 21 20 18 16 14 16 21 23 25 29 31 32 33 34 33 32 29 29 29 24 21 20 20 22 22 20 18 17 16 14 14 14 14 15
22 20 18 18 18 17 16 16 15 16 16 15 14 16 19 23 27 30 32 34 35 35 34 32 30 28 29 25 22 21 20 22 21 20 18 17 14 11 9 10 8 11 12
23 20 17 16 15 14 13 12 11 12 11 10 11 15 19 22 26 30 33 34 33 32 32 32 29 25 25 20 17 16 18 19 20 20 14 10 8 6 7 6 6 3 1
21 18 17 15 13 12 11 9 8 8 5 7 10 14 19 24 27 31 31 31 31 30 31 32 31 29 24 19 15 14 14 16 17 17 14 12 10 8 8 8 8 6 6
24 18 15 13 11 10 8 6 5 3 3 6 11 15 19 23 26 29 28 27 28 27 27 28 28 27 26 22 17 16 11 10 12 14 19 18 16 14 12 13 13 10 8
20 17 13 11 9 7 6 4 3 3 3 4 8 13 17 21 23 25 24 23 22 21 19 19 21 22 22 22 17 13 10 7 6 10 14 14 14 15 17 19 18 16 13
19 15 12 9 8 8 7 6 4 5 5 6 8 11 14 17 19 21 19 18 16 13 10 10 11 15 17 16 14 11 9 4 3 5 9 9 12 16 22 23 20 15 13
22 20 15 12 11 8 6 7 8 8 6 6 7 9 12 13 13 14 13 10 8 6 5 4 2 5 11 16 14 13 9 2 5 4 8 11 16 22 26 26 22 17 14
27 22 19 16 13 10 9 11 11 9 8 8 7 8 10 12 13 12 11 9 10 12 11 10 8 6 5 13 15 13 10 7 10 12 14 16 20 23 27 28 23 17 18
24 21 20 17 14 11 9 7 8 9 10 9 9 11 14 17 18 18 17 17 18 19 17 13 12 11 10 11 10 10 11 8 12 20 20 20 22 27 31 25 20 17 14
17 16 15 15 12 8 5 2 2 3 6 8 11 13 16 18 20 22 22 23 23 23 23 20 18 16 17 15 14 14 13 14 16 22 24 23 22 26 27 24 16 11 7
24 21 16 12 11 9 2 5 4 4 5 7 11 15 19 22 25 27 29 28 28 31 31 27 24 22 26 24 20 17 16 18 19 23 27 27 24 23 21 17 10 8 7
22 22 21 17 13 13 7 10 12 13 15 16 22 24 29 30 32 35 35 30 36 37 39 39 33 29 32 29 25 22 23 23 21 22 24 26 22 21 16 13 8 5 8
21 17 14 13 11 13 13 13 19 20 21 21 23 22 23 25 28 28 28 28 30 34 38 35 20 23 35 40 49 34 28 27 22 25 26 16 14 15 15 9 3 5 7
25 23 24 19 19 18 15 14 17 19 21 21 26 27 24 21 22 24 25 24 26 28 29 31 33 31 36 47 45 35 29 28 26 33 27 22 13 13 19 7 7 4 11
31 33 34 35 36 34 27 22 23 29 33 34 28 26 21 22 29 30 31 25 22 26 30 32 34 36 39 40 40 44 46 50 50 37 23 22 18 15 17 9 11 7 6
31 32 31 30 29 35 30 29 35 41 44 40 30 26 26 22 20 27 30 25 22 20 23 26 26 30 33 37 46 49 48 44 39 41 33 23 20 21 16 14 11 7 10
25 28 28 30 29 35 29 27 38 48 54 51 34 27 27 22 21 20 25 30 34 36 34 30 27 25 24 28 31 37 39 34 32 31 35 28 25 16 14 12 10 8 5
22 25 25 27 35 35 26 31 44 53 53 42 23 20 24 26 23 30 34 34 37 38 38 32 29 27 23 22 23 26 31 33 35 33 28 24 23 17 15 10 4 6 13
11 14 19 30 36 31 25 36 45 46 43 34 27 26 28 27 31 33 42 37 32 29 29 30 28 25 28 25 23 23 22 26 25 24 23 26 21 12 10 9 9 9 14
16 18 23 25 24 24 34 46 44 42 44 35 29 33 31 32 33 35 39 32 30 30 28 24 27 26 28 26 25 12 8 15 19 21 25 28 18 7 9 5 6 8 12
7 17 21 23 26 35 43 44 44 46 41 37 30 27 26 27 28 29 31 32 33 31 23 21 21 23 24 19 17 10 10 9 19 24 29 25 12 13 9 7 9 9 11
13 18 19 24 33 42 45 47 51 44 38 37 31 26 21 20 22 27 27 29 33 28 23 23 20 20 19 15 16 13 9 8 27 31 31 23 23 18 12 17 16 14 14
13 13 18 32 41 43 41 40 44 41 41 38 39 37 33 29 28 31 32 30 33 26 25 19 15 15 15 13 14 26 13 15 9 17 24 23 20 16 17 18 18 18 18
13 22 29 37 43 37 34 39 44 44 40 39 40 35 28 25 28 33 28 22 19 14 13 12 11 10 10 9 7 11 10 16 11 12 19 23 22 23 21 21 18 15 14
14 25 37 41 27 32 38 44 40 39 39 38 33 31 28 23 20 20 18 13 5 8 10 13 9 7 7 9 11 9 11 11 22 14 14 15 19 20 21 17 14 11 15
Wind_Direction_500mb
130 129 128 128 129 133 129 126 121 119 119 118 115 110 111 121 129 132 131 130 127 122 115 108 104 106 109 112 108 96 92 92 103 108 107 100 91 83 69 68 75 79 87
136 135 128 125 133 133 130 125 119 120 122 126 133 137 139 136 137 137 134 131 126 120 114 109 107 106 110 116 109 97 103 107 101 106 96 89 86 84 70 71 78 101 108
135 135 133 131 138 139 136 132 130 136 128 131 141 143 143 141 140 138 136 132 125 119 114 109 104 106 114 125 117 106 104 99 89 91 78 35 36 50 70 74 46 15 321
136 144 140 140 146 144 142 139 144 153 140 145 144 145 146 142 142 140 137 132 126 119 111 102 97 93 100 128 122 122 124 106 87 68 40 28 28 41 23 359 341 328 303
150 144 143 147 145 145 146 144 148 159 164 159 154 154 152 148 148 146 142 136 129 122 112 102 93 90 93 117 127 115 109 82 69 51 42 33 36 32 30 5 344 310 286
136 131 134 137 132 125 108 98 100 73 120 151 157 159 157 155 154 152 148 143 137 128 114 100 96 94 99 112 131 136 115 101 61 41 30 29 17 12 358 348 341 326 288
108 109 105 105 109 110 101 69 63 94 118 136 152 158 161 160 160 160 158 155 151 138 124 117 105 102 106 119 139 147 154 120 19 6 13 18 357 348 343 340 333 318 291
98 92 89 87 90 96 80 79 87 85 101 121 144 159 164 168 169 166 167 167 168 176 186 199 164 106 120 143 151 175 187 211 331 354 349 338 336 335 334 332 326 311 284
97 94 86 85 85 81 81 88 90 94 101 116 133 153 172 181 186 188 186 187 198 204 212 222 234 231 200 165 179 204 225 254 311 305 311 313 315 324 328 327 320 299 288
105 89 80 67 65 66 62 73 100 132 141 144 162 185 202 209 209 206 213 217 222 216 217 226 238 244 232 210 218 246 248 286 311 308 299 300 307 319 328 327 316 309 297
83 73 82 71 58 46 43 63 148 149 165 195 213 219 228 237 239 237 239 242 246 241 234 244 254 246 246 229 224 250 253 294 298 297 289 290 304 315 323 331 320 304 325
82 75 72 83 82 70 33 79 318 308 275 260 267 269 266 267 268 261 256 257 257 255 256 267 266 261 237 231 224 238 258 274 280 282 289 296 301 311 318 343 337 323 353
77 79 80 72 57 53 36 359 340 338 324 305 295 287 280 283 282 276 270 270 266 267 264 267 254 264 244 234 232 244 249 251 258 267 280 292 299 308 326 337 343 330 349
92 80 68 58 45 42 26 19 13 357 348 333 324 303 288 279 280 284 280 273 268 265 261 264 247 241 245 244 260 255 243 254 257 275 277 278 291 310 330 330 304 341 3
71 61 51 33 21 10 348 342 329 333 345 349 342 340 333 311 308 307 301 290 281 272 266 267 265 266 256 251 253 239 233 245 267 279 254 256 271 291 317 290 208 13 9
56 51 45 40 33 16 2 357 352 342 336 327 322 330 331 331 334 333 334 319 303 287 278 273 267 262 259 256 250 248 257 259 266 258 236 240 250 258 290 243 219 242 284
54 53 41 25 17 22 5 351 353 346 337 319 315 306 311 320 343 355 345 334 319 311 304 296 288 276 265 262 260 259 259 260 256 248 239 240 242 257 237 232 248 273 313
49 33 22 6 9 11 11 356 344 347 341 341 315 295 300 303 318 331 328 324 317 313 308 305 299 281 278 275 267 260 255 252 250 244 231 238 230 238 254 257 275 275 307
24 8 359 353 2 358 344 339 349 345 338 325 309 295 287 292 302 306 306 309 308 304 300 294 286 294 296 300 288 273 258 245 242 235 228 227 210 223 239 259 287 303 315
345 350 344 354 353 347 328 333 343 342 334 310 293 290 285 287 293 290 297 300 307 313 307 294 286 286 291 303 301 286 261 242 227 213 197 184 192 201 240 260 293 310 333
322 332 333 329 326 329 336 341 342 345 342 327 303 294 296 288 287 285 282 299 307 310 308 298 279 280 286 286 294 281 223 215 221 204 198 192 194 212 223 232 285 310 339
300 316 311 313 324 333 336 340 338 332 331 325 315 303 295 286 289 292 292 298 314 312 308 303 283 270 269 262 279 250 173 142 174 171 168 175 194 203 268 236 264 277 308
294 302 304 319 327 331 334 336 334 327 323 321 322 324 319 307 298 296 296 305 309 302 303 306 292 279 262 252 249 206 182 150 142 166 175 190 200 195 224 247 263 263 277
282 292 310 318 325 328 335 345 341 342 337 332 326 320 310 295 290 287 298 300 302 294 297 293 291 284 267 257 234 211 181 141 139 153 178 183 192 201 225 238 251 262 280
274 305 316 326 331 339 349 344 341 338 331 322 320 316 313 315 289 280 291 300 308 305 304 298 298 284 271 240 219 176 203 215 167 160 177 189 206 225 235 256 253 271 286
331 331 334 341 353 355 351 343 346 351 351 344 340 337 332 327 318 294 281 292 330 353 352 332 303 294 262 215 185 160 191 196 213 203 205 192 214 232 245 251 256 278 280
Wind_Speed_850mb
22 17 16 19 19 18 19 20 20 21 20 18 16 14 16 21 23 25 29 31 32 33 34 33 32 29 29 29 24 21 20 20 22 22 20 18 17 16 14 14 14 14 15
22 20 18 18 18 17 16 16 15 16 16 15 14 16 19 23 27 30 32 34 35 35 34 32 30 28 29 25 22 21 20 22 21 20 18 17 14 11 9 10 8 11 12
23 20 17 16 15 14 13 12 11 12 11 10 11 15 19 22 26 30 33 34 33 32 32 32 29 25 25 20 17 16 18 19 20 20 14 10 8 6 7 6 6 3 1
21 18 17 15 13 12 11 9 8 8 5 7 10 14 19 24 27 31 31 31 31 30 31 32 31 29 24 19 15 14 14 16 17 17 14 12 10 8 8 8 8 6 6
24 18 15 13 11 10 8 6 5 3 3 6 11 15 19 23 26 29 28 27 28 27 27 28 28 27 26 22 17 16 11 10 12 14 19 18 16 14 12 13 13 10 8
20 17 13 11 9 7 6 4 3 3 3 4 8 13 17 21 23 25 24 23 22 21 19 19 21 22 22 22 17 13 10 7 6 10 14 14 14 15 17 19 18 16 13
19 15 12 9 8 8 7 6 4 5 5 6 8 11 14 17 19 21 19 18 16 13 10 10 11 15 17 16 14 11 9 4 3 5 9 9 12 16 22 23 20 15 13
22 20 15 12 11 8 6 7 8 8 6 6 7 9 12 13 13 14 13 10 8 6 5 4 2 5 11 16 14 13 9 2 5 4 8 11 16 22 26 26 22 17 14
27 22 19 16 13 10 9 11 11 9 8 8 7 8 10 12 13 12 11 9 10 12 11 10 8 6 5 13 15 13 10 7 10 12 14 16 20 23 27 28 23 17 18
24 21 20 17 14 11 9 7 8 9 10 9 9 11 14 17 18 18 17 17 18 19 17 13 12 11 10 11 10 10 11 8 12 20 20 20 22 27 31 25 20 17 14
17 16 15 15 12 8 5 2 2 3 6 8 11 13 16 18 20 22 22 23 23 23 23 20 18 16 17 15 14 14 13 14 16 22 24 23 22 26 27 24 16 11 7
24 21 16 12 11 9 2 5 4 4 5 7 11 15 19 22 25 27 29 28 28 31 31 27 24 22 26 24 20 17 16 18 19 23 27 27 24 23 21 17 10 8 7
22 22 21 17 13 13 7 10 12 13 15 16 22 24 29 30 32 35 35 30 36 37 39 39 33 29 32 29 25 22 23 23 21 22 24 26 22 21 16 13 8 5 8
21 17 14 13 11 13 13 13 19 20 21 21 23 22 23 25 28 28 28 28 30 34 38 35 20 23 35 40 49 34 28 27 22 25 26 16 14 15 15 9 3 5 7
25 23 24 19 19 18 15 14 17 19 21 21 26 27 24 21 22 24 25 24 26 28 29 31 33 31 36 47 45 35 29 28 26 33 27 22 13 13 19 7 7 4 11
31 33 34 35 36 34 27 22 23 29 33 34 28 26 21 22 29 30 31 25 22 26 30 32 34 36 39 40 40 44 46 50 50 37 23 22 18 15 17 9 11 7 6
31 32 31 30 29 35 30 29 35 41 44 40 30 26 26 22 20 27 30 25 22 20 23 26 26 30 33 37 46 49 48 44 39 41 33 23 20 21 16 14 11 7 10
25 28 28 30 29 35 29 27 38 48 54 51 34 27 27 22 21 20 25 30 34 36 34 30 27 25 24 28 31 37 39 34 32 31 35 28 25 16 14 12 10 8 5
22 25 25 27 35 35 26 31 44 53 53 42 23 20 24 26 23 30 34 34 37 38 38 32 29 27 23 22 23 26 31 33 35 33 28 24 23 17 15 10 4 6 13
11 14 19 30 36 31 25 36 45 46 43 34 27 26 28 27 31 33 42 37 32 29 29 30 28 25 28 25 23 23 22 26 25 24 23 26 21 12 10 9 9 9 14
16 18 23 25 24 24 34 46 44 42 44 35 29 33 31 32 33 35 39 32 30 30 28 24 27 26 28 26 25 12 8 15 19 21 25 28 18 7 9 5 6 8 12
7 17 21 23 26 35 43 44 44 46 41 37 30 27 26 27 28 29 31 32 33 31 23 21 21 23 24 19 17 10 10 9 19 24 29 25 12 13 9 7 9 9 11
13 18 19 24 33 42 45 47 51 44 38 37 31 26 21 20 22 27 27 29 33 28 23 23 20 20 19 15 16 13 9 8 27 31 31 23 23 18 12 17 16 14 14
13 13 18 32 41 43 41 40 44 41 41 38 39 37 33 29 28 31 32 30 33 26 25 19 15 15 15 13 14 26 13 15 9 17 24 23 20 16 17 18 18 18 18
13 22 29 37 43 37 34 39 44 44 40 39 40 35 28 25 28 33 28 22 19 14 13 12 11 10 10 9 7 11 10 16 11 12 19 23 22 23 21 21 18 15 14
14 25 37 41 27 32 38 44 40 39 39 38 33 31 28 23 20 20 18 13 5 8 10 13 9 7 7 9 11 9 11 11 22 14 14 15 19 20 21 17 14 11 15
Wind_Direction_850mb
130 129 128 128 129 133 129 126 121 119 119 118 115 110 111 121 129 132 131 130 127 122 115 108 104 106 109 112 108 96 92 92 103 108 107 100 91 83 69 68 75 79 87
136 135 128 125 133 133 130 125 119 120 122 126 133 137 139 136 137 137 134 131 126 120 114 109 107 106 110 116 109 97 103 107 101 106 96 89 86 84 70 71 78 101 108
135 135 133 131 138 139 136 132 130 136 128 131 141 143 143 141 140 138 136 132 125 119 114 109 104 106 114 125 117 106 104 99 89 91 78 35 36 50 70 74 46 15 321
136 144 140 140 146 144 142 139 144 153 140 145 144 145 146 142 142 140 137 132 126 119 111 102 97 93 100 128 122 122 124 106 87 68 40 28 28 41 23 359 341 328 303
150 144 143 147 145 145 146 144 148 159 164 159 154 154 152 148 148 146 142 136 129 122 112 102 93 90 93 117 127 115 109 82 69 51 42 33 36 32 30 5 344 310 286
136 131 134 137 132 125 108 98 100 73 120 151 157 159 157 155 154 152 148 143 137 128 114 100 96 94 99 112 131 136 115 101 61 41 30 29 17 12 358 348 341 326 288
108 109 105 105 109 110 101 69 63 94 118 136 152 158 161 160 160 160 158 155 151 138 124 117 105 102 106 119 139 147 154 120 19 6 13 18 357 348 343 340 333 318 291
98 92 89 87 90 96 80 79 87 85 101 121 144 159 164 168 169 166 167 167 168 176 186 199 164 106 120 143 151 175 187 211 331 354 349 338 336 335 334 332 326 311 284
97 94 86 85 85 81 81 88 90 94 101 116 133 153 172 181 186 188 186 187 198 204 212 222 234 231 200 165 179 204 225 254 311 305 311 313 315 324 328 327 320 299 288
105 89 80 67 65 66 62 73 100 132 141 144 162 185 202 209 209 206 213 217 222 216 217 226 238 244 232 210 218 246 248 286 311 308 299 300 307 319 328 327 316 309 297
83 73 82 71 58 46 43 63 148 149 165 195 213 219 228 237 239 237 239 242 246 241 234 244 254 246 246 229 224 250 253 294 298 297 289 290 304 315 323 331 320 304 325
82 75 72 83 82 70 33 79 318 308 275 260 267 269 266 267 268 261 256 257 257 255 256 267 266 261 237 231 224 238 258 274 280 282 289 296 301 311 318 343 337 323 353
77 79 80 72 57 53 36 359 340 338 324 305 295 287 280 283 282 276 270 270 266 267 264 267 254 264 244 234 232 244 249 251 258 267 280 292 299 308 326 337 343 330 349
92 80 68 58 45 42 26 19 13 357 348 333 324 303 288 279 280 284 280 273 268 265 261 264 247 241 245 244 260 255 243 254 257 275 277 278 291 310 330 330 304 341 3
71 61 51 33 21 10 348 342 329 333 345 349 342 340 333 311 308 307 301 290 281 272 266 267 265 266 256 251 253 239 233 245 267 279 254 256 271 291 317 290 208 13 9
56 51 45 40 33 16 2 357 352 342 336 327 322 330 331 331 334 333 334 319 303 287 278 273 267 262 259 256 250 248 257 259 266 258 236 240 250 258 290 243 219 242 284
54 53 41 25 17 22 5 351 353 346 337 319 315 306 311 320 343 355 345 334 319 311 304 296 288 276 265 262 260 259 259 260 256 248 239 240 242 257 237 232 248 273 313
49 33 22 6 9 11 11 356 344 347 341 341 315 295 300 303 318 331 328 324 317 313 308 305 299 281 278 275 267 260 255 252 250 244 231 238 230 238 254 257 275 275 307
24 8 359 353 2 358 344 339 349 345 338 325 309 295 287 292 302 306 306 309 308 304 300 294 286 294 296 300 288 273 258 245 242 235 228 227 210 223 239 259 287 303 315
345 350 344 354 353 347 328 333 343 342 334 310 293 290 285 287 293 290 297 300 307 313 307 294 286 286 291 303 301 286 261 242 227 213 197 184 192 201 240 260 293 310 333
322 332 333 329 326 329 336 341 342 345 342 327 303 294 296 288 287 285 282 299 307 310 308 298 279 280 286 286 294 281 223 215 221 204 198 192 194 212 223 232 285 310 339
300 316 311 313 324 333 336 340 338 332 331 325 315 303 295 286 289 292 292 298 314 312 308 303 283 270 269 262 279 250 173 142 174 171 168 175 194 203 268 236 264 277 308
294 302 304 319 327 331 334 336 334 327 323 321 322 324 319 307 298 296 296 305 309 302 303 306 292 279 262 252 249 206 182 150 142 166 175 190 200 195 224 247 263 263 277
282 292 310 318 325 328 335 345 341 342 337 332 326 320 310 295 290 287 298 300 302 294 297 293 291 284 267 257 234 211 181 141 139 153 178 183 192 201 225 238 251 262 280
274 305 316 326 331 339 349 344 341 338 331 322 320 316 313 315 289 280 291 300 308 305 304 298 298 284 271 240 219 176 203 215 167 160 177 189 206 225 235 256 253 271 286
331 331 334 341 353 355 351 343 346 351 351 344 340 337 332 327 318 294 281 292 330 353 352 332 303 294 262 215 185 160 191 196 213 203 205 192 214 232 245 251 256 278 280